Tracking 35237 objects as of 4-Sep-2026
HD Live streaming from Space Station
objects crossing your sky now

SL-4 R/B


SL-4 R/B is no longer on orbit


NORAD ID: 14623
Int'l Code: 1984-002B
Launch date: January 11, 1984
Source: Commonwealth of Independent States (former USSR) (CIS)
Launch site: PLESETSK MISSILE AND SPACE COMPLEX (PKMTR)
Decay date: 1984-01-25

Note: This is a ROCKET BODY
Your satellite tracking list
Your tracking list is empty




NASA's NSSDC Master Catalog

Two Line Element Set (TLE):
1 14623U 84002  B 84024.93276623  .12072268 +85981-5 +93439-4 0  9992
2 14623 072.8077 265.0337 0013580 074.9266 285.0228 16.52042149002177
Source of the keplerian elements: AFSPC